Megah Delapan — VRGA4 — position and weather

sailwx.info

Track history (hours):
 
Tides and Currents Weather Stations Pressure Air Temp Water Temp Dewpoint Dewpoint Depression Visibility Wind Speed Wind Dir Waves Ship Positions

Megah Delapan

Last reported at 2017-Jan-27 00:32 UTC. Time now 2017-Feb-24 19:34 UTC.
Position N 34°26' E 135°02'.
Warning: this ship's position is 28 days out of date.

Length 120 m; draft 7.1 m.

Type: Cargo ship. MMSI: 477639100.

Date/timePositionNaut miles runAvg speedWind from/ knotsBaromVisibWave heightAir tempDewpointWater temp
2017-Jan-27 00:32N 34°26' E 135°02'1010.6
2017-Jan-26 23:33N 34°36' E 135°03'8 8.3
2017-Jan-26 22:33N 34°37' E 134°53'  
2017-Jan-22 22:07N 34°42' E 134°48'1 1.7
2017-Jan-22 21:25N 34°41' E 134°47'0 0.1
2017-Jan-22 20:25N 34°41' E 134°47'0 0.1
2017-Jan-22 19:25N 34°41' E 134°47'0 0.0
2017-Jan-22 18:19N 34°41' E 134°47'0 0.1
2017-Jan-22 17:31N 34°41' E 134°47'0 0.0
2017-Jan-22 16:25N 34°41' E 134°47'0 0.0
2017-Jan-22 15:19N 34°41' E 134°47'0 0.0
2017-Jan-22 14:31N 34°41' E 134°47'0 0.0
2017-Jan-22 13:31N 34°41' E 134°47'0 0.0
2017-Jan-22 12:31N 34°41' E 134°47'0 0.4
2017-Jan-22 11:29N 34°41' E 134°48'1 0.3
2017-Jan-22 08:33N 34°40' E 134°48'1110.7
2017-Jan-22 07:29N 34°37' E 135°01'1011.1
2017-Jan-22 06:33N 34°27' E 135°04'1313.1
2017-Jan-22 05:33N 34°15' E 134°59'1313.2
2017-Jan-22 04:33N 34°01' E 134°59'23810.7
2017-Jan-21 06:20N 35°03' E 139°38'1113.5
2017-Jan-21 05:33N 35°11' E 139°46'1212.4
2017-Jan-21 04:33N 35°23' E 139°42'4 3.4
2017-Jan-21 03:31N 35°27' E 139°40'0 0.0
2017-Jan-21 02:31N 35°27' E 139°40'0 0.0
2017-Jan-21 01:31N 35°27' E 139°40'0 0.0
2017-Jan-21 00:31N 35°27' E 139°40'0 0.0
2017-Jan-20 23:31N 35°27' E 139°40'0 0.0
2017-Jan-20 22:31N 35°27' E 139°40'2 2.0
2017-Jan-20 21:33N 35°26' E 139°43'5 4.7
2017-Jan-20 20:33N 35°21' E 139°43'7 6.5
2017-Jan-20 19:33N 35°15' E 139°47'8 8.0
2017-Jan-20 18:33N 35°07' E 139°47'  
2017-Jan-18 10:17N 34°12' E 134°58'1114.3
2017-Jan-18 09:32N 34°22' E 135°02'1312.9
2017-Jan-18 08:33N 34°29' E 135°14'7 7.1
2017-Jan-18 07:31N 34°31' E 135°23'0 0.0
2017-Jan-18 06:31N 34°31' E 135°23'0 0.0
2017-Jan-18 05:31N 34°31' E 135°23'0 0.0
2017-Jan-18 04:31N 34°31' E 135°23'0 0.0
2017-Jan-18 03:31N 34°31' E 135°23'0 0.0
2017-Jan-18 02:31N 34°31' E 135°23'0 0.0
2017-Jan-18 01:31N 34°31' E 135°23'0 0.0
2017-Jan-18 00:31N 34°31' E 135°23'0 0.0
2017-Jan-17 23:31N 34°31' E 135°23'0 0.0
2017-Jan-17 22:31N 34°31' E 135°23'0 0.0
2017-Jan-17 21:31N 34°31' E 135°23'0 0.0
2017-Jan-17 20:31N 34°31' E 135°23'0 0.0
2017-Jan-17 19:31N 34°31' E 135°23'0 0.0
2017-Jan-17 18:25N 34°31' E 135°23'0 0.0
2017-Jan-17 17:31N 34°31' E 135°23'0 0.0
2017-Jan-17 16:25N 34°31' E 135°23'0 0.0
2017-Jan-17 15:25N 34°31' E 135°23'0 0.0
2017-Jan-17 14:31N 34°31' E 135°23'0 0.0
2017-Jan-17 13:31N 34°31' E 135°23'0 0.0
2017-Jan-17 12:31N 34°31' E 135°23'0 0.0
2017-Jan-17 11:25N 34°31' E 135°23'0 0.0
2017-Jan-17 10:31N 34°31' E 135°23'0 0.0
2017-Jan-17 09:31N 34°31' E 135°23'0 0.0
2017-Jan-17 08:25N 34°31' E 135°23'0 0.0
2017-Jan-17 07:31N 34°31' E 135°23'0 0.0
2017-Jan-17 06:25N 34°31' E 135°23'0 0.0
2017-Jan-17 05:25N 34°31' E 135°23'0 0.0
2017-Jan-17 04:31N 34°31' E 135°23'0 0.0
2017-Jan-17 03:25N 34°31' E 135°23'0 0.0
2017-Jan-17 02:19N 34°31' E 135°23'0 0.0
2017-Jan-17 01:31N 34°31' E 135°23'0 0.1
2017-Jan-17 00:33N 34°31' E 135°23'  
Track history (hours):
 
Tides and Currents Weather Stations Pressure Air Temp Water Temp Dewpoint Dewpoint Depression Visibility Wind Speed Wind Dir Waves Ship Positions

Megah Delapan

Last reported at 2017-Jan-27 00:32 UTC. Time now 2017-Feb-24 19:34 UTC.
Position N 34°26' E 135°02'.
Warning: this ship's position is 28 days out of date.

Length 120 m; draft 7.1 m.

Type: Cargo ship. MMSI: 477639100.

Date/timePositionNaut miles runAvg speedWind from/ knotsBaromVisibWave heightAir tempDewpointWater temp
2017-Jan-27 00:32N 34°26' E 135°02'1010.6
2017-Jan-26 23:33N 34°36' E 135°03'8 8.3
2017-Jan-26 22:33N 34°37' E 134°53'  
2017-Jan-22 22:07N 34°42' E 134°48'1 1.7
2017-Jan-22 21:25N 34°41' E 134°47'0 0.1
2017-Jan-22 20:25N 34°41' E 134°47'0 0.1
2017-Jan-22 19:25N 34°41' E 134°47'0 0.0
2017-Jan-22 18:19N 34°41' E 134°47'0 0.1
2017-Jan-22 17:31N 34°41' E 134°47'0 0.0
2017-Jan-22 16:25N 34°41' E 134°47'0 0.0
2017-Jan-22 15:19N 34°41' E 134°47'0 0.0
2017-Jan-22 14:31N 34°41' E 134°47'0 0.0
2017-Jan-22 13:31N 34°41' E 134°47'0 0.0
2017-Jan-22 12:31N 34°41' E 134°47'0 0.4
2017-Jan-22 11:29N 34°41' E 134°48'1 0.3
2017-Jan-22 08:33N 34°40' E 134°48'1110.7
2017-Jan-22 07:29N 34°37' E 135°01'1011.1
2017-Jan-22 06:33N 34°27' E 135°04'1313.1
2017-Jan-22 05:33N 34°15' E 134°59'1313.2
2017-Jan-22 04:33N 34°01' E 134°59'23810.7
2017-Jan-21 06:20N 35°03' E 139°38'1113.5
2017-Jan-21 05:33N 35°11' E 139°46'1212.4
2017-Jan-21 04:33N 35°23' E 139°42'4 3.4
2017-Jan-21 03:31N 35°27' E 139°40'0 0.0
2017-Jan-21 02:31N 35°27' E 139°40'0 0.0
2017-Jan-21 01:31N 35°27' E 139°40'0 0.0
2017-Jan-21 00:31N 35°27' E 139°40'0 0.0
2017-Jan-20 23:31N 35°27' E 139°40'0 0.0
2017-Jan-20 22:31N 35°27' E 139°40'2 2.0
2017-Jan-20 21:33N 35°26' E 139°43'5 4.7
2017-Jan-20 20:33N 35°21' E 139°43'7 6.5
2017-Jan-20 19:33N 35°15' E 139°47'8 8.0
2017-Jan-20 18:33N 35°07' E 139°47'  
2017-Jan-18 10:17N 34°12' E 134°58'1114.3
2017-Jan-18 09:32N 34°22' E 135°02'1312.9
2017-Jan-18 08:33N 34°29' E 135°14'7 7.1
2017-Jan-18 07:31N 34°31' E 135°23'0 0.0
2017-Jan-18 06:31N 34°31' E 135°23'0 0.0
2017-Jan-18 05:31N 34°31' E 135°23'0 0.0
2017-Jan-18 04:31N 34°31' E 135°23'0 0.0
2017-Jan-18 03:31N 34°31' E 135°23'0 0.0
2017-Jan-18 02:31N 34°31' E 135°23'0 0.0
2017-Jan-18 01:31N 34°31' E 135°23'0 0.0
2017-Jan-18 00:31N 34°31' E 135°23'0 0.0
2017-Jan-17 23:31N 34°31' E 135°23'0 0.0
2017-Jan-17 22:31N 34°31' E 135°23'0 0.0
2017-Jan-17 21:31N 34°31' E 135°23'0 0.0
2017-Jan-17 20:31N 34°31' E 135°23'0 0.0
2017-Jan-17 19:31N 34°31' E 135°23'0 0.0
2017-Jan-17 18:25N 34°31' E 135°23'0 0.0
2017-Jan-17 17:31N 34°31' E 135°23'0 0.0
2017-Jan-17 16:25N 34°31' E 135°23'0 0.0
2017-Jan-17 15:25N 34°31' E 135°23'0 0.0
2017-Jan-17 14:31N 34°31' E 135°23'0 0.0
2017-Jan-17 13:31N 34°31' E 135°23'0 0.0
2017-Jan-17 12:31N 34°31' E 135°23'0 0.0
2017-Jan-17 11:25N 34°31' E 135°23'0 0.0
2017-Jan-17 10:31N 34°31' E 135°23'0 0.0
2017-Jan-17 09:31N 34°31' E 135°23'0 0.0
2017-Jan-17 08:25N 34°31' E 135°23'0 0.0
2017-Jan-17 07:31N 34°31' E 135°23'0 0.0
2017-Jan-17 06:25N 34°31' E 135°23'0 0.0
2017-Jan-17 05:25N 34°31' E 135°23'0 0.0
2017-Jan-17 04:31N 34°31' E 135°23'0 0.0
2017-Jan-17 03:25N 34°31' E 135°23'0 0.0
2017-Jan-17 02:19N 34°31' E 135°23'0 0.0
2017-Jan-17 01:31N 34°31' E 135°23'0 0.1
2017-Jan-17 00:33N 34°31' E 135°23'  

Dump ship's entire track history